CHINASAT 16 (SJ-13)

Last updated on Jan. 29, 2020, 4:37 a.m. UTC

1 42662U 17018A   20028.88038340 -.00000353  00000-0  99999+0 0  9999
2 42662   0.0472  85.1486 0006483 157.2008 312.6778  1.00269646 10369
UTC
Height (km)
Latitude
Longitude
Inclination
Orbital Period
UTC large
Height (km)
Speed (km/s)
/
Latitude / Longitude
Inclination (degrees)
Orbital Period (minutes)
Azimuth
Elevation
Range (km)
Doppler Factor
iOS Compass Heading
iOS Angle

Next 30 passes for location: Hong Kong

Rise time Rise Azimuth (degrees) Set time Set Azimuth (degrees) Duration Max altitude (degrees)

No matching passes for this satellites